Time,TemperatureF,DewpointF,PressureIn,WindDirection,WindDirectionDegrees,WindSpeedMPH,WindSpeedGustMPH,Humidity,HourlyPrecipIn,Conditions,Clouds,dailyrainin,SolarRadiationWatts/m^2,SoftwareType,DateUTC
2013-06-20 00:01:00,50.6,43.0,30.63,SSE,149,9.0,12.0,75,0.00,,,0.40,0.00,VWS V14.00,2013-06-20 06:01:00,
2013-06-20 00:06:00,50.6,42.6,30.63,SSE,161,7.0,12.0,74,0.00,,,0.40,0.00,VWS V14.00,2013-06-20 06:06:00,
2013-06-20 00:11:00,50.6,42.6,30.63,SE,146,10.0,12.0,74,0.00,,,0.00,0.00,VWS V14.00,2013-06-20 06:11:00,
2013-06-20 00:16:00,50.7,42.7,30.63,SSE,152,5.0,12.0,74,0.00,,,0.00,0.00,VWS V14.00,2013-06-20 06:16:00,
2013-06-20 00:21:00,50.7,42.4,30.64,SSE,157,7.0,12.0,73,0.00,,,0.00,0.00,VWS V14.00,2013-06-20 06:21:00,
2013-06-20 00:26:00,50.7,42.7,30.64,SE,144,6.0,9.0,74,0.00,,,0.00,0.00,VWS V14.00,2013-06-20 06:26:00,
2013-06-20 00:31:00,50.6,43.0,30.64,SSE,149,5.0,9.0,75,0.00,,,0.00,0.00,VWS V14.00,2013-06-20 06:31:00,
2013-06-20 00:36:00,50.5,42.5,30.64,SSE,148,2.0,10.0,74,0.00,,,0.00,0.00,VWS V14.00,2013-06-20 06:36:00,
2013-06-20 00:41:00,50.4,42.8,30.64,SSE,149,5.0,6.0,75,0.00,,,0.00,0.00,VWS V14.00,2013-06-20 06:41:00,
2013-06-20 00:46:00,50.4,42.8,30.65,SSE,147,4.0,9.0,75,0.00,,,0.00,0.00,VWS V14.00,2013-06-20 06:46:00,
2013-06-20 00:51:00,50.3,42.7,30.65,SSE,155,5.0,9.0,75,0.00,,,0.00,0.00,VWS V14.00,2013-06-20 06:51:00,
2013-06-20 00:56:00,50.1,42.2,30.65,SSE,156,9.0,11.0,74,0.00,,,0.00,0.00,VWS V14.00,2013-06-20 06:56:00,
2013-06-20 01:01:00,50.1,42.2,30.64,SE,141,9.0,11.0,74,0.00,,,0.00,0.00,VWS V14.00,2013-06-20 07:01:00,
2013-06-20 01:06:00,50.1,42.2,30.64,SSE,152,9.0,11.0,74,0.00,,,0.00,0.00,VWS V14.00,2013-06-20 07:06:00,
2013-06-20 01:11:00,50.0,42.0,30.64,SSE,159,7.0,8.0,74,0.00,,,0.00,0.00,VWS V14.00,2013-06-20 07:11:00,
2013-06-20 01:16:00,49.9,42.3,30.63,SSE,157,0.0,8.0,75,0.00,,,0.00,0.00,VWS V14.00,2013-06-20 07:16:00,
2013-06-20 01:21:00,49.9,42.3,30.63,SSE,157,3.0,8.0,75,0.00,,,0.00,0.00,VWS V14.00,2013-06-20 07:21:00,
2013-06-20 01:26:00,49.7,41.8,30.63,SSE,155,2.0,6.0,74,0.00,,,0.00,0.00,VWS V14.00,2013-06-20 07:26:00,
2013-06-20 01:31:00,49.7,42.1,30.63,SSE,149,4.0,7.0,75,0.00,,,0.00,0.00,VWS V14.00,2013-06-20 07:31:00,
2013-06-20 01:36:00,49.7,42.1,30.64,SSE,149,3.0,7.0,75,0.00,,,0.00,0.00,VWS V14.00,2013-06-20 07:36:00,
2013-06-20 01:41:00,49.6,42.0,30.64,SSE,149,5.0,6.0,75,0.00,,,0.00,0.00,VWS V14.00,2013-06-20 07:41:00,
2013-06-20 01:46:00,49.6,41.7,30.64,SSE,159,9.0,9.0,74,0.00,,,0.00,0.00,VWS V14.00,2013-06-20 07:46:00,
2013-06-20 01:51:00,49.6,41.3,30.64,SSE,154,2.0,9.0,73,0.00,,,0.00,0.00,VWS V14.00,2013-06-20 07:51:00,
2013-06-20 01:56:00,49.7,41.0,30.64,SSE,147,3.0,8.0,72,0.00,,,0.00,0.00,VWS V14.00,2013-06-20 07:56:00,
2013-06-20 02:01:00,49.7,41.4,30.64,SSE,157,3.0,8.0,73,0.00,,,0.00,0.00,VWS V14.00,2013-06-20 08:01:00,
2013-06-20 02:06:00,49.7,41.4,30.64,SSE,153,5.0,8.0,73,0.00,,,0.00,0.00,VWS V14.00,2013-06-20 08:06:00,
2013-06-20 02:11:00,49.7,41.0,30.65,SSE,157,5.0,10.0,72,0.00,,,0.00,0.00,VWS V14.00,2013-06-20 08:11:00,
2013-06-20 02:16:00,49.7,41.0,30.65,SSE,148,4.0,10.0,72,0.00,,,0.00,0.00,VWS V14.00,2013-06-20 08:16:00,
2013-06-20 02:21:00,49.6,41.0,30.65,SSE,157,8.0,10.0,72,0.00,,,0.00,0.00,VWS V14.00,2013-06-20 08:21:00,
2013-06-20 02:26:00,49.6,41.3,30.65,SSE,158,5.0,12.0,73,0.00,,,0.00,0.00,VWS V14.00,2013-06-20 08:26:00,
2013-06-20 02:31:00,49.6,41.3,30.65,SSE,167,10.0,12.0,73,0.00,,,0.00,0.00,VWS V14.00,2013-06-20 08:31:00,
2013-06-20 02:36:00,49.6,41.3,30.65,SSE,159,6.0,12.0,73,0.00,,,0.00,0.00,VWS V14.00,2013-06-20 08:36:00,
2013-06-20 02:41:00,49.6,41.0,30.65,SSE,160,5.0,10.0,72,0.00,,,0.00,0.00,VWS V14.00,2013-06-20 08:41:00,
2013-06-20 02:46:00,49.6,41.0,30.64,SSE,159,6.0,10.0,72,0.00,,,0.00,0.00,VWS V14.00,2013-06-20 08:46:00,
2013-06-20 02:51:00,49.6,41.0,30.64,SSE,160,5.0,10.0,72,0.00,,,0.00,0.00,VWS V14.00,2013-06-20 08:51:00,
2013-06-20 02:56:00,49.5,40.9,30.64,SSE,165,9.0,11.0,72,0.00,,,0.00,0.00,VWS V14.00,2013-06-20 08:56:00,
2013-06-20 03:01:00,49.5,40.5,30.64,SSE,157,6.0,13.0,71,0.00,,,0.00,0.00,VWS V14.00,2013-06-20 09:01:00,
2013-06-20 03:06:00,49.5,40.5,30.64,SSE,153,7.0,13.0,71,0.00,,,0.00,0.00,VWS V14.00,2013-06-20 09:06:00,
2013-06-20 03:11:00,49.4,40.4,30.65,SSE,153,8.0,11.0,71,0.00,,,0.00,0.00,VWS V14.00,2013-06-20 09:11:00,
2013-06-20 03:16:00,49.4,40.4,30.65,SSE,167,8.0,13.0,71,0.00,,,0.00,0.00,VWS V14.00,2013-06-20 09:16:00,
2013-06-20 03:21:00,49.3,39.9,30.65,SSE,159,6.0,13.0,70,0.00,,,0.00,0.00,VWS V14.00,2013-06-20 09:21:00,
2013-06-20 03:26:00,49.3,40.3,30.65,SSE,158,6.0,12.0,71,0.00,,,0.00,0.00,VWS V14.00,2013-06-20 09:26:00,
2013-06-20 03:31:00,49.2,40.2,30.65,SSE,160,4.0,12.0,71,0.00,,,0.00,0.00,VWS V14.00,2013-06-20 09:31:00,
2013-06-20 03:36:00,49.2,40.2,30.65,SSE,159,4.0,12.0,71,0.00,,,0.00,0.00,VWS V14.00,2013-06-20 09:36:00,
2013-06-20 03:41:00,49.1,40.5,30.65,SSE,159,5.0,9.0,72,0.00,,,0.00,0.00,VWS V14.00,2013-06-20 09:41:00,
2013-06-20 03:46:00,49.0,40.0,30.65,SSE,155,5.0,9.0,71,0.00,,,0.00,0.00,VWS V14.00,2013-06-20 09:46:00,
2013-06-20 03:51:00,49.0,39.7,30.65,SSE,155,5.0,10.0,70,0.00,,,0.00,0.00,VWS V14.00,2013-06-20 09:51:00,
2013-06-20 03:56:00,49.1,39.8,30.65,SSE,155,6.0,10.0,70,0.00,,,0.00,0.00,VWS V14.00,2013-06-20 09:56:00,
2013-06-20 04:01:00,49.1,39.4,30.65,SSE,157,8.0,14.0,69,0.00,,,0.00,0.00,VWS V14.00,2013-06-20 10:01:00,
2013-06-20 04:06:00,49.2,39.8,30.65,SSE,159,6.0,14.0,70,0.00,,,0.00,0.00,VWS V14.00,2013-06-20 10:06:00,
2013-06-20 04:11:00,49.2,40.2,30.66,SSE,158,4.0,8.0,71,0.00,,,0.00,0.00,VWS V14.00,2013-06-20 10:11:00,
2013-06-20 04:16:00,49.1,40.1,30.66,SSE,157,6.0,10.0,71,0.00,,,0.00,0.00,VWS V14.00,2013-06-20 10:16:00,
2013-06-20 04:21:00,49.0,40.0,30.66,SE,146,6.0,11.0,71,0.00,,,0.00,0.00,VWS V14.00,2013-06-20 10:21:00,
2013-06-20 04:26:00,48.9,39.6,30.66,SE,144,9.0,14.0,70,0.00,,,0.00,0.00,VWS V14.00,2013-06-20 10:26:00,
2013-06-20 04:31:00,48.9,39.6,30.66,SSE,151,6.0,14.0,70,0.00,,,0.00,0.00,VWS V14.00,2013-06-20 10:31:00,
2013-06-20 04:36:00,48.9,39.6,30.66,SSE,155,6.0,14.0,70,0.00,,,0.00,0.00,VWS V14.00,2013-06-20 10:36:00,
2013-06-20 04:41:00,48.9,39.6,30.66,SSE,153,6.0,14.0,70,0.00,,,0.00,0.00,VWS V14.00,2013-06-20 10:41:00,
2013-06-20 04:46:00,48.9,39.6,30.65,SSE,156,7.0,14.0,70,0.00,,,0.00,0.00,VWS V14.00,2013-06-20 10:46:00,
2013-06-20 04:51:00,49.0,39.7,30.65,SSE,149,9.0,15.0,70,0.00,,,0.00,0.00,VWS V14.00,2013-06-20 10:51:00,
2013-06-20 04:56:00,49.0,39.7,30.65,SSE,164,10.0,14.0,70,0.00,,,0.00,0.00,VWS V14.00,2013-06-20 10:56:00,
2013-06-20 05:01:00,49.0,39.7,30.66,SSE,157,10.0,14.0,70,0.00,,,0.00,0.00,VWS V14.00,2013-06-20 11:01:00,
2013-06-20 05:06:00,49.0,39.7,30.65,SE,145,10.0,15.0,70,0.00,,,0.00,0.00,VWS V14.00,2013-06-20 11:06:00,
2013-06-20 05:11:00,48.9,39.2,30.65,SSE,148,10.0,14.0,69,0.00,,,0.00,0.00,VWS V14.00,2013-06-20 11:11:00,
2013-06-20 05:16:00,48.9,39.2,30.65,SE,140,14.0,16.0,69,0.00,,,0.00,0.00,VWS V14.00,2013-06-20 11:16:00,
2013-06-20 05:21:00,49.0,38.9,30.65,SSE,157,7.0,16.0,68,0.00,,,0.00,0.00,VWS V14.00,2013-06-20 11:21:00,
2013-06-20 05:26:00,49.0,38.9,30.65,SSE,159,11.0,15.0,68,0.00,,,0.00,0.00,VWS V14.00,2013-06-20 11:26:00,
2013-06-20 05:31:00,48.9,38.8,30.65,SSE,151,11.0,18.0,68,0.00,,,0.00,0.00,VWS V14.00,2013-06-20 11:31:00,
2013-06-20 05:36:00,48.9,39.2,30.65,SSE,158,12.0,18.0,69,0.00,,,0.00,0.00,VWS V14.00,2013-06-20 11:36:00,
2013-06-20 05:41:00,48.8,39.1,30.65,SSE,147,9.0,14.0,69,0.00,,,0.00,0.00,VWS V14.00,2013-06-20 11:41:00,
2013-06-20 05:46:00,48.7,39.0,30.66,SSE,161,9.0,16.0,69,0.00,,,0.00,0.00,VWS V14.00,2013-06-20 11:46:00,
2013-06-20 05:51:00,48.6,38.5,30.66,SSE,160,8.0,16.0,68,0.00,,,0.00,0.00,VWS V14.00,2013-06-20 11:51:00,
2013-06-20 05:56:00,48.5,38.8,30.66,SSE,155,11.0,13.0,69,0.00,,,0.00,0.00,VWS V14.00,2013-06-20 11:56:00,
2013-06-20 06:01:00,48.4,39.1,30.67,SSE,150,7.0,14.0,70,0.00,,,0.00,0.00,VWS V14.00,2013-06-20 12:01:00,
2013-06-20 06:06:00,48.3,38.6,30.67,SE,142,13.0,14.0,69,0.00,,,0.00,0.00,VWS V14.00,2013-06-20 12:06:00,
2013-06-20 06:11:00,48.3,38.6,30.67,SSE,160,6.0,16.0,69,0.00,,,0.00,5.00,VWS V14.00,2013-06-20 12:11:00,
2013-06-20 06:16:00,48.2,38.9,30.67,SSE,150,12.0,16.0,70,0.00,,,0.00,7.00,VWS V14.00,2013-06-20 12:16:00,
2013-06-20 06:21:00,48.2,38.9,30.66,SE,144,10.0,16.0,70,0.00,,,0.00,9.00,VWS V14.00,2013-06-20 12:21:00,
2013-06-20 06:26:00,48.1,38.8,30.66,SSE,155,7.0,16.0,70,0.00,,,0.00,12.00,VWS V14.00,2013-06-20 12:26:00,
2013-06-20 06:31:00,48.1,39.2,30.66,SSE,155,6.0,17.0,71,0.00,,,0.00,14.00,VWS V14.00,2013-06-20 12:31:00,
2013-06-20 06:36:00,48.1,39.2,30.67,SSE,161,12.0,17.0,71,0.00,,,0.00,19.00,VWS V14.00,2013-06-20 12:36:00,
2013-06-20 06:41:00,48.1,39.2,30.67,SSE,156,7.0,15.0,71,0.00,,,0.00,25.00,VWS V14.00,2013-06-20 12:41:00,
2013-06-20 06:46:00,48.1,39.5,30.67,SSE,165,9.0,15.0,72,0.00,,,0.00,30.00,VWS V14.00,2013-06-20 12:46:00,
2013-06-20 06:51:00,48.1,39.2,30.67,SSE,161,5.0,15.0,71,0.00,,,0.00,40.00,VWS V14.00,2013-06-20 12:51:00,
2013-06-20 06:56:00,48.2,39.2,30.67,SSE,168,4.0,13.0,71,0.00,,,0.00,44.00,VWS V14.00,2013-06-20 12:56:00,
2013-06-20 07:01:00,48.2,39.6,30.67,SSE,164,7.0,13.0,72,0.00,,,0.00,44.00,VWS V14.00,2013-06-20 13:01:00,
2013-06-20 07:06:00,48.3,39.3,30.68,SSE,159,5.0,13.0,71,0.00,,,0.00,40.00,VWS V14.00,2013-06-20 13:06:00,
2013-06-20 07:11:00,48.4,39.4,30.69,SSE,167,6.0,14.0,71,0.00,,,0.00,44.00,VWS V14.00,2013-06-20 13:11:00,
2013-06-20 07:16:00,48.5,39.9,30.68,SSE,157,7.0,14.0,72,0.00,,,0.00,49.00,VWS V14.00,2013-06-20 13:16:00,
2013-06-20 07:21:00,48.5,39.5,30.68,SSE,163,9.0,14.0,71,0.00,,,0.00,58.00,VWS V14.00,2013-06-20 13:21:00,
2013-06-20 07:26:00,48.6,39.6,30.68,South,174,6.0,15.0,71,0.00,,,0.00,74.00,VWS V14.00,2013-06-20 13:26:00,
2013-06-20 07:31:00,48.7,39.7,30.68,SSE,153,10.0,16.0,71,0.00,,,0.00,83.00,VWS V14.00,2013-06-20 13:31:00,
2013-06-20 07:36:00,48.8,39.8,30.68,SSE,149,11.0,16.0,71,0.00,,,0.00,100.00,VWS V14.00,2013-06-20 13:36:00,
2013-06-20 07:41:00,48.9,39.9,30.68,SE,138,14.0,17.0,71,0.00,,,0.00,105.00,VWS V14.00,2013-06-20 13:41:00,
2013-06-20 07:46:00,49.1,40.5,30.68,SSE,150,9.0,17.0,72,0.00,,,0.00,107.00,VWS V14.00,2013-06-20 13:46:00,
2013-06-20 07:51:00,49.2,40.2,30.68,SSE,154,9.0,17.0,71,0.00,,,0.00,111.00,VWS V14.00,2013-06-20 13:51:00,
2013-06-20 07:56:00,49.2,40.2,30.68,SSE,155,4.0,14.0,71,0.00,,,0.00,111.00,VWS V14.00,2013-06-20 13:56:00,
2013-06-20 08:01:00,49.2,40.6,30.68,SSE,155,7.0,14.0,72,0.00,,,0.00,107.00,VWS V14.00,2013-06-20 14:01:00,
2013-06-20 08:06:00,49.4,40.0,30.69,SSE,160,10.0,16.0,70,0.00,,,0.00,109.00,VWS V14.00,2013-06-20 14:06:00,
2013-06-20 08:11:00,49.6,39.9,30.69,SSE,152,9.0,14.0,69,0.00,,,0.00,118.00,VWS V14.00,2013-06-20 14:11:00,
2013-06-20 08:16:00,49.7,40.3,30.69,SSE,156,10.0,14.0,70,0.00,,,0.00,132.00,VWS V14.00,2013-06-20 14:16:00,
2013-06-20 08:21:00,49.9,40.5,30.69,SSE,156,11.0,14.0,70,0.00,,,0.00,151.00,VWS V14.00,2013-06-20 14:21:00,
2013-06-20 08:26:00,50.0,40.2,30.69,SSE,162,10.0,15.0,69,0.00,,,0.00,156.00,VWS V14.00,2013-06-20 14:26:00,
2013-06-20 08:31:00,50.2,40.8,30.69,SSE,162,9.0,15.0,70,0.00,,,0.00,165.00,VWS V14.00,2013-06-20 14:31:00,
2013-06-20 08:36:00,50.4,39.9,30.70,South,171,10.0,15.0,67,0.00,,,0.00,172.00,VWS V14.00,2013-06-20 14:36:00,
2013-06-20 08:41:00,50.5,39.6,30.70,SSE,161,14.0,17.0,66,0.00,,,0.00,185.00,VWS V14.00,2013-06-20 14:41:00,
2013-06-20 08:46:00,50.7,40.5,30.70,South,172,9.0,17.0,68,0.00,,,0.00,221.00,VWS V14.00,2013-06-20 14:46:00,
2013-06-20 08:51:00,50.9,40.7,30.70,SSE,159,9.0,18.0,68,0.00,,,0.00,232.00,VWS V14.00,2013-06-20 14:51:00,
2013-06-20 08:56:00,51.0,40.4,30.70,South,171,10.0,15.0,67,0.00,,,0.00,271.00,VWS V14.00,2013-06-20 14:56:00,
2013-06-20 09:01:00,51.3,40.3,30.70,SSE,165,10.0,18.0,66,0.00,,,0.00,329.00,VWS V14.00,2013-06-20 15:01:00,
2013-06-20 09:06:00,51.7,41.5,30.69,SSE,153,11.0,18.0,68,0.00,,,0.00,343.00,VWS V14.00,2013-06-20 15:06:00,
2013-06-20 09:11:00,52.1,41.5,30.70,SSE,163,8.0,15.0,67,0.00,,,0.00,297.00,VWS V14.00,2013-06-20 15:11:00,
2013-06-20 09:16:00,52.2,40.4,30.70,South,190,11.0,20.0,64,0.00,,,0.00,276.00,VWS V14.00,2013-06-20 15:16:00,
2013-06-20 09:21:00,52.1,40.7,30.70,SSE,163,11.0,20.0,65,0.00,,,0.00,283.00,VWS V14.00,2013-06-20 15:21:00,
2013-06-20 09:26:00,52.2,41.2,30.71,SSE,156,6.0,13.0,66,0.00,,,0.00,276.00,VWS V14.00,2013-06-20 15:26:00,
2013-06-20 09:31:00,52.3,40.5,30.71,SSE,159,8.0,18.0,64,0.00,,,0.00,285.00,VWS V14.00,2013-06-20 15:31:00,
2013-06-20 09:36:00,52.4,41.0,30.71,SSE,160,9.0,18.0,65,0.00,,,0.00,294.00,VWS V14.00,2013-06-20 15:36:00,
2013-06-20 09:41:00,52.4,41.4,30.71,SSE,157,11.0,16.0,66,0.00,,,0.00,327.00,VWS V14.00,2013-06-20 15:41:00,
2013-06-20 09:46:00,52.5,40.7,30.70,SSE,157,10.0,17.0,64,0.00,,,0.00,306.00,VWS V14.00,2013-06-20 15:46:00,
2013-06-20 09:51:00,52.4,40.2,30.72,SSE,164,13.0,21.0,63,0.00,,,0.00,297.00,VWS V14.00,2013-06-20 15:51:00,
2013-06-20 09:56:00,52.4,41.0,30.72,SSE,150,10.0,19.0,65,0.00,,,0.00,329.00,VWS V14.00,2013-06-20 15:56:00,
2013-06-20 10:01:00,52.6,41.2,30.71,SSE,157,9.0,19.0,65,0.00,,,0.00,304.00,VWS V14.00,2013-06-20 16:01:00,
2013-06-20 10:06:00,52.7,40.9,30.71,SSE,156,10.0,19.0,64,0.00,,,0.00,225.00,VWS V14.00,2013-06-20 16:06:00,
2013-06-20 10:11:00,52.9,41.5,30.71,South,169,9.0,19.0,65,0.00,,,0.00,283.00,VWS V14.00,2013-06-20 16:11:00,
2013-06-20 10:16:00,53.7,41.4,30.72,South,180,9.0,19.0,63,0.00,,,0.00,420.00,VWS V14.00,2013-06-20 16:16:00,
2013-06-20 10:21:00,54.1,41.0,30.72,SSE,168,12.0,19.0,61,0.00,,,0.00,301.00,VWS V14.00,2013-06-20 16:21:00,
2013-06-20 10:26:00,54.0,41.7,30.72,SSE,166,4.0,16.0,63,0.00,,,0.00,376.00,VWS V14.00,2013-06-20 16:26:00,
2013-06-20 10:31:00,54.0,42.1,30.72,SSE,158,9.0,18.0,64,0.00,,,0.00,302.00,VWS V14.00,2013-06-20 16:31:00,
2013-06-20 10:36:00,53.9,41.2,30.73,SSE,161,8.0,18.0,62,0.00,,,0.00,311.00,VWS V14.00,2013-06-20 16:36:00,
2013-06-20 10:41:00,53.8,41.1,30.73,SSW,196,9.0,14.0,62,0.00,,,0.00,306.00,VWS V14.00,2013-06-20 16:41:00,
2013-06-20 10:46:00,53.8,40.7,30.73,South,186,11.0,18.0,61,0.00,,,0.00,304.00,VWS V14.00,2013-06-20 16:46:00,
2013-06-20 10:51:00,53.7,41.4,30.73,South,169,7.0,18.0,63,0.00,,,0.00,304.00,VWS V14.00,2013-06-20 16:51:00,
2013-06-20 10:56:00,53.7,41.0,30.74,SSE,148,8.0,17.0,62,0.00,,,0.00,306.00,VWS V14.00,2013-06-20 16:56:00,
2013-06-20 11:01:00,53.6,40.5,30.74,SSE,155,10.0,21.0,61,0.00,,,0.00,306.00,VWS V14.00,2013-06-20 17:01:00,
2013-06-20 11:06:00,53.6,41.3,30.74,South,180,7.0,21.0,63,0.00,,,0.00,348.00,VWS V14.00,2013-06-20 17:06:00,
2013-06-20 11:11:00,53.7,41.8,30.74,South,175,6.0,13.0,64,0.00,,,0.00,320.00,VWS V14.00,2013-06-20 17:11:00,
2013-06-20 11:16:00,53.8,39.8,30.74,SSE,153,6.0,14.0,59,0.00,,,0.00,359.00,VWS V14.00,2013-06-20 17:16:00,
2013-06-20 11:21:00,54.0,41.7,30.74,SSE,157,9.0,14.0,63,0.00,,,0.00,352.00,VWS V14.00,2013-06-20 17:21:00,
2013-06-20 11:26:00,54.1,41.8,30.75,SSE,155,5.0,14.0,63,0.00,,,0.00,418.00,VWS V14.00,2013-06-20 17:26:00,
2013-06-20 11:31:00,54.3,41.6,30.75,SSE,152,7.0,14.0,62,0.00,,,0.00,471.00,VWS V14.00,2013-06-20 17:31:00,
2013-06-20 11:36:00,54.6,42.7,30.74,SSE,158,11.0,14.0,64,0.00,,,0.00,443.00,VWS V14.00,2013-06-20 17:36:00,
2013-06-20 11:41:00,55.1,42.3,30.74,South,183,11.0,12.0,62,0.00,,,0.00,555.00,VWS V14.00,2013-06-20 17:41:00,
2013-06-20 11:46:00,55.7,42.5,30.74,SE,146,7.0,12.0,61,0.00,,,0.00,536.00,VWS V14.00,2013-06-20 17:46:00,
2013-06-20 11:51:00,56.2,43.0,30.74,South,188,4.0,13.0,61,0.00,,,0.00,533.00,VWS V14.00,2013-06-20 17:51:00,
2013-06-20 11:56:00,56.5,42.4,30.73,South,173,2.0,9.0,59,0.00,,,0.00,596.00,VWS V14.00,2013-06-20 17:56:00,
2013-06-20 12:01:00,57.0,42.4,30.73,SSE,163,5.0,14.0,58,0.00,,,0.00,462.00,VWS V14.00,2013-06-20 18:01:00,
2013-06-20 12:06:00,57.1,42.9,30.73,SSE,167,3.0,14.0,59,0.00,,,0.00,603.00,VWS V14.00,2013-06-20 18:06:00,
2013-06-20 12:11:00,57.9,44.1,30.73,SSE,147,11.0,13.0,60,0.00,,,0.00,1134.00,VWS V14.00,2013-06-20 18:11:00,
2013-06-20 12:16:00,59.0,43.8,30.74,SE,143,6.0,13.0,57,0.00,,,0.00,979.00,VWS V14.00,2013-06-20 18:16:00,
2013-06-20 12:21:00,59.7,43.0,30.73,South,182,0.0,13.0,54,0.00,,,0.00,918.00,VWS V14.00,2013-06-20 18:21:00,
2013-06-20 12:26:00,60.1,44.4,30.73,WSW,254,3.0,7.0,56,0.00,,,0.00,501.00,VWS V14.00,2013-06-20 18:26:00,
2013-06-20 12:31:00,59.6,42.5,30.73,WNW,302,0.0,11.0,53,0.00,,,0.00,469.00,VWS V14.00,2013-06-20 18:31:00,
2013-06-20 12:36:00,59.0,41.4,30.74,West,275,7.0,12.0,52,0.00,,,0.00,392.00,VWS V14.00,2013-06-20 18:36:00,
2013-06-20 12:41:00,58.3,42.7,30.74,South,191,2.0,5.0,56,0.00,,,0.00,513.00,VWS V14.00,2013-06-20 18:41:00,
2013-06-20 12:46:00,57.7,41.7,30.74,SSE,157,4.0,9.0,55,0.00,,,0.00,501.00,VWS V14.00,2013-06-20 18:46:00,
2013-06-20 12:51:00,57.4,43.6,30.75,South,188,6.0,9.0,60,0.00,,,0.00,564.00,VWS V14.00,2013-06-20 18:51:00,
2013-06-20 12:56:00,57.6,42.5,30.74,SSE,159,3.0,6.0,57,0.00,,,0.00,564.00,VWS V14.00,2013-06-20 18:56:00,
2013-06-20 13:01:00,57.7,42.1,30.74,South,183,0.0,6.0,56,0.00,,,0.00,417.00,VWS V14.00,2013-06-20 19:01:00,
2013-06-20 13:06:00,57.4,39.9,30.74,SSE,161,0.0,6.0,52,0.00,,,0.00,339.00,VWS V14.00,2013-06-20 19:06:00,
2013-06-20 13:11:00,57.5,41.5,30.75,South,175,1.0,4.0,55,0.00,,,0.00,330.00,VWS V14.00,2013-06-20 19:11:00,
2013-06-20 13:16:00,57.5,41.5,30.75,South,175,0.0,4.0,55,0.00,,,0.00,538.00,VWS V14.00,2013-06-20 19:16:00,
2013-06-20 13:21:00,57.9,42.8,30.74,SSW,198,0.0,6.0,57,0.00,,,0.00,580.00,VWS V14.00,2013-06-20 19:21:00,
2013-06-20 13:26:00,58.4,41.3,30.74,SSE,159,0.0,11.0,53,0.00,,,0.00,510.00,VWS V14.00,2013-06-20 19:26:00,
2013-06-20 13:31:00,58.8,41.2,30.74,South,173,4.0,11.0,52,0.00,,,0.00,496.00,VWS V14.00,2013-06-20 19:31:00,
2013-06-20 13:36:00,58.7,42.6,30.74,South,169,8.0,13.0,55,0.00,,,0.00,373.00,VWS V14.00,2013-06-20 19:36:00,
2013-06-20 13:41:00,58.1,41.6,30.74,South,190,3.0,13.0,54,0.00,,,0.00,418.00,VWS V14.00,2013-06-20 19:41:00,
2013-06-20 13:46:00,59.0,46.0,30.74,SSE,165,4.0,13.0,62,0.00,,,0.00,947.00,VWS V14.00,2013-06-20 19:46:00,
2013-06-20 13:51:00,59.8,43.6,30.73,SSE,155,5.0,13.0,55,0.00,,,0.00,858.00,VWS V14.00,2013-06-20 19:51:00,
2013-06-20 13:56:00,60.0,43.3,30.73,SSE,154,5.0,10.0,54,0.00,,,0.00,851.00,VWS V14.00,2013-06-20 19:56:00,
2013-06-20 14:01:00,59.8,41.1,30.73,SSE,150,0.0,11.0,50,0.00,,,0.00,610.00,VWS V14.00,2013-06-20 20:01:00,
2013-06-20 14:06:00,59.7,43.5,30.73,SSE,161,4.0,11.0,55,0.00,,,0.00,612.00,VWS V14.00,2013-06-20 20:06:00,
2013-06-20 14:11:00,59.6,43.0,30.73,SSE,150,5.0,12.0,54,0.00,,,0.00,512.00,VWS V14.00,2013-06-20 20:11:00,
2013-06-20 14:16:00,59.5,42.4,30.73,SSW,192,3.0,12.0,53,0.00,,,0.00,534.00,VWS V14.00,2013-06-20 20:16:00,
2013-06-20 14:21:00,59.6,42.0,30.73,SSE,160,6.0,12.0,52,0.00,,,0.00,680.00,VWS V14.00,2013-06-20 20:21:00,
2013-06-20 14:26:00,59.8,40.6,30.72,SSE,156,4.0,6.0,49,0.00,,,0.00,272.00,VWS V14.00,2013-06-20 20:26:00,
2013-06-20 14:31:00,59.6,41.5,30.73,SSE,152,6.0,14.0,51,0.00,,,0.00,366.00,VWS V14.00,2013-06-20 20:31:00,
2013-06-20 14:36:00,59.8,42.2,30.72,SSE,165,9.0,15.0,52,0.00,,,0.00,758.00,VWS V14.00,2013-06-20 20:36:00,
2013-06-20 14:41:00,60.1,41.4,30.72,SSE,149,9.0,10.0,50,0.00,,,0.00,517.00,VWS V14.00,2013-06-20 20:41:00,
2013-06-20 14:46:00,60.3,40.0,30.73,SSE,156,10.0,13.0,47,0.00,,,0.00,531.00,VWS V14.00,2013-06-20 20:46:00,
2013-06-20 14:51:00,60.3,42.1,30.73,SSW,193,12.0,19.0,51,0.00,,,0.00,355.00,VWS V14.00,2013-06-20 20:51:00,
2013-06-20 14:56:00,59.2,40.6,30.73,SSE,166,13.0,23.0,50,0.00,,,0.00,394.00,VWS V14.00,2013-06-20 20:56:00,
2013-06-20 15:01:00,58.3,41.3,30.74,SSE,160,11.0,23.0,53,0.00,,,0.00,439.00,VWS V14.00,2013-06-20 21:01:00,
2013-06-20 15:06:00,57.6,41.1,30.74,SSE,167,10.0,23.0,54,0.00,,,0.00,330.00,VWS V14.00,2013-06-20 21:06:00,
2013-06-20 15:11:00,57.3,40.8,30.74,SSE,147,9.0,15.0,54,0.00,,,0.00,411.00,VWS V14.00,2013-06-20 21:11:00,
2013-06-20 15:16:00,57.6,41.1,30.74,SE,133,10.0,15.0,54,0.00,,,0.00,374.00,VWS V14.00,2013-06-20 21:16:00,
2013-06-20 15:21:00,57.7,40.7,30.74,SE,144,9.0,15.0,53,0.00,,,0.00,302.00,VWS V14.00,2013-06-20 21:21:00,
2013-06-20 15:26:00,58.2,42.6,30.74,SE,143,9.0,16.0,56,0.00,,,0.00,302.00,VWS V14.00,2013-06-20 21:26:00,
2013-06-20 15:31:00,59.1,43.4,30.73,SSE,159,11.0,16.0,56,0.00,,,0.00,758.00,VWS V14.00,2013-06-20 21:31:00,
2013-06-20 15:36:00,60.2,43.0,30.73,SSE,158,9.0,17.0,53,0.00,,,0.00,766.00,VWS V14.00,2013-06-20 21:36:00,
2013-06-20 15:41:00,60.7,43.5,30.72,SSE,159,15.0,16.0,53,0.00,,,0.00,756.00,VWS V14.00,2013-06-20 21:41:00,
2013-06-20 15:46:00,60.9,44.2,30.72,SSE,148,7.0,18.0,54,0.00,,,0.00,696.00,VWS V14.00,2013-06-20 21:46:00,
2013-06-20 15:51:00,60.9,43.2,30.72,SE,142,12.0,19.0,52,0.00,,,0.00,747.00,VWS V14.00,2013-06-20 21:51:00,
2013-06-20 15:56:00,61.1,42.8,30.72,SSE,159,8.0,16.0,51,0.00,,,0.00,693.00,VWS V14.00,2013-06-20 21:56:00,
2013-06-20 16:01:00,61.4,42.6,30.72,SE,146,16.0,17.0,50,0.00,,,0.00,754.00,VWS V14.00,2013-06-20 22:01:00,
2013-06-20 16:06:00,61.8,42.5,30.72,South,171,5.0,17.0,49,0.00,,,0.00,877.00,VWS V14.00,2013-06-20 22:06:00,
2013-06-20 16:11:00,62.6,42.7,30.71,SSE,164,9.0,12.0,48,0.00,,,0.00,849.00,VWS V14.00,2013-06-20 22:11:00,
2013-06-20 16:16:00,63.1,42.0,30.72,SE,144,6.0,13.0,46,0.00,,,0.00,896.00,VWS V14.00,2013-06-20 22:16:00,
2013-06-20 16:21:00,63.1,42.0,30.72,SSE,168,0.0,13.0,46,0.00,,,0.00,918.00,VWS V14.00,2013-06-20 22:21:00,
2013-06-20 16:26:00,62.3,44.0,30.72,WNW,300,10.0,14.0,51,0.00,,,0.00,352.00,VWS V14.00,2013-06-20 22:26:00,
2013-06-20 16:31:00,61.0,45.2,30.72,NW,326,10.0,14.0,56,0.00,,,0.00,905.00,VWS V14.00,2013-06-20 22:31:00,
2013-06-20 16:36:00,60.9,44.6,30.73,NW,326,9.0,16.0,55,0.00,,,0.00,821.00,VWS V14.00,2013-06-20 22:36:00,
2013-06-20 16:41:00,61.3,45.0,30.73,NNW,346,8.0,13.0,55,0.00,,,0.00,308.00,VWS V14.00,2013-06-20 22:41:00,
2013-06-20 16:46:00,61.2,44.4,30.73,NW,317,9.0,13.0,54,0.00,,,0.00,807.00,VWS V14.00,2013-06-20 22:46:00,
2013-06-20 16:51:00,61.5,44.2,30.73,NNW,340,12.0,13.0,53,0.00,,,0.00,768.00,VWS V14.00,2013-06-20 22:51:00,
2013-06-20 16:56:00,61.7,44.4,30.73,NW,318,6.0,10.0,53,0.00,,,0.00,740.00,VWS V14.00,2013-06-20 22:56:00,
2013-06-20 17:01:00,61.8,42.5,30.73,NNW,334,3.0,10.0,49,0.00,,,0.00,768.00,VWS V14.00,2013-06-20 23:01:00,
2013-06-20 17:06:00,61.8,43.0,30.73,North,360,2.0,10.0,50,0.00,,,0.00,251.00,VWS V14.00,2013-06-20 23:06:00,
2013-06-20 17:11:00,61.7,42.4,30.73,North,351,0.0,6.0,49,0.00,,,0.00,225.00,VWS V14.00,2013-06-20 23:11:00,
2013-06-20 17:16:00,61.4,43.6,30.74,North,350,2.0,6.0,52,0.00,,,0.00,223.00,VWS V14.00,2013-06-20 23:16:00,
2013-06-20 17:21:00,60.9,42.2,30.74,North,355,3.0,7.0,50,0.00,,,0.00,425.00,VWS V14.00,2013-06-20 23:21:00,
2013-06-20 17:26:00,60.8,42.6,30.74,North,355,2.0,4.0,51,0.00,,,0.00,418.00,VWS V14.00,2013-06-20 23:26:00,
2013-06-20 17:31:00,61.1,41.3,30.74,NNE,31,1.0,7.0,48,0.00,,,0.00,717.00,VWS V14.00,2013-06-20 23:31:00,
2013-06-20 17:36:00,61.1,41.3,30.74,North,355,0.0,7.0,48,0.00,,,0.00,162.00,VWS V14.00,2013-06-20 23:36:00,
2013-06-20 17:41:00,61.1,42.3,30.74,North,355,0.0,6.0,50,0.00,,,0.00,207.00,VWS V14.00,2013-06-20 23:41:00,
2013-06-20 17:46:00,61.1,41.3,30.74,North,355,4.0,7.0,48,0.00,,,0.00,211.00,VWS V14.00,2013-06-20 23:46:00,
2013-06-20 17:51:00,60.9,42.7,30.74,North,350,1.0,7.0,51,0.00,,,0.00,209.00,VWS V14.00,2013-06-20 23:51:00,
2013-06-20 17:56:00,60.7,43.5,30.74,North,350,2.0,5.0,53,0.00,,,0.00,206.00,VWS V14.00,2013-06-20 23:56:00,
2013-06-20 18:01:00,60.6,42.9,30.74,NNW,340,5.0,10.0,52,0.00,,,0.00,239.00,VWS V14.00,2013-06-21 00:01:00,
2013-06-20 18:06:00,60.2,43.0,30.74,NW,318,5.0,15.0,53,0.00,,,0.00,257.00,VWS V14.00,2013-06-21 00:06:00,
2013-06-20 18:11:00,59.6,42.5,30.75,NW,318,6.0,13.0,53,0.00,,,0.00,244.00,VWS V14.00,2013-06-21 00:11:00,
2013-06-20 18:16:00,59.1,41.0,30.75,NW,311,6.0,13.0,51,0.00,,,0.00,176.00,VWS V14.00,2013-06-21 00:16:00,
2013-06-20 18:21:00,59.0,42.9,30.76,NNW,336,4.0,13.0,55,0.00,,,0.00,185.00,VWS V14.00,2013-06-21 00:21:00,
2013-06-20 18:26:00,58.8,42.7,30.76,NNW,348,2.0,8.0,55,0.00,,,0.00,190.00,VWS V14.00,2013-06-21 00:26:00,
2013-06-20 18:31:00,58.6,43.4,30.76,North,355,5.0,10.0,57,0.00,,,0.00,220.00,VWS V14.00,2013-06-21 00:31:00,
2013-06-20 18:36:00,58.5,42.9,30.76,North,360,4.0,13.0,56,0.00,,,0.00,148.00,VWS V14.00,2013-06-21 00:36:00,
2013-06-20 18:41:00,58.5,43.8,30.76,NNE,32,3.0,9.0,58,0.00,,,0.00,436.00,VWS V14.00,2013-06-21 00:41:00,
2013-06-20 18:46:00,59.0,44.3,30.76,North,355,6.0,9.0,58,0.00,,,0.00,366.00,VWS V14.00,2013-06-21 00:46:00,
2013-06-20 18:51:00,59.0,43.8,30.76,NNE,19,0.0,13.0,57,0.00,,,0.00,49.00,VWS V14.00,2013-06-21 00:51:00,
2013-06-20 18:56:00,58.6,43.4,30.77,North,5,3.0,8.0,57,0.00,,,0.00,67.00,VWS V14.00,2013-06-21 00:56:00,
2013-06-20 19:01:00,57.7,41.7,30.77,NNE,22,2.0,10.0,55,0.00,,,0.00,67.00,VWS V14.00,2013-06-21 01:01:00,
2013-06-20 19:06:00,56.9,41.8,30.77,NNE,19,0.0,10.0,57,0.00,,,0.00,102.00,VWS V14.00,2013-06-21 01:06:00,
2013-06-20 19:11:00,56.7,42.1,30.77,NNE,22,0.0,10.0,58,0.00,,,0.00,257.00,VWS V14.00,2013-06-21 01:11:00,
2013-06-20 19:16:00,56.8,42.6,30.77,NNE,33,0.0,10.0,59,0.00,,,0.00,287.00,VWS V14.00,2013-06-21 01:16:00,
2013-06-20 19:21:00,56.5,42.4,30.77,NE,46,0.0,10.0,59,0.00,,,0.00,42.00,VWS V14.00,2013-06-21 01:21:00,
2013-06-20 19:26:00,56.1,43.3,30.78,NNE,31,0.0,2.0,62,0.00,,,0.00,63.00,VWS V14.00,2013-06-21 01:26:00,
2013-06-20 19:31:00,55.8,43.8,30.78,North,11,2.0,4.0,64,0.00,,,0.00,120.00,VWS V14.00,2013-06-21 01:31:00,
2013-06-20 19:36:00,55.8,43.8,30.78,NNE,13,0.0,5.0,64,0.00,,,0.00,218.00,VWS V14.00,2013-06-21 01:36:00,
2013-06-20 19:41:00,56.0,44.4,30.78,North,360,0.0,6.0,65,0.00,,,0.00,220.00,VWS V14.00,2013-06-21 01:41:00,
2013-06-20 19:46:00,56.3,44.3,30.78,NNE,19,3.0,6.0,64,0.00,,,0.00,128.00,VWS V14.00,2013-06-21 01:46:00,
2013-06-20 19:51:00,56.4,43.6,30.79,North,9,0.0,7.0,62,0.00,,,0.00,35.00,VWS V14.00,2013-06-21 01:51:00,
2013-06-20 19:56:00,56.3,43.0,30.79,North,355,5.0,5.0,61,0.00,,,0.00,58.00,VWS V14.00,2013-06-21 01:56:00,
2013-06-20 20:01:00,56.1,42.8,30.80,North,355,5.0,9.0,61,0.00,,,0.00,74.00,VWS V14.00,2013-06-21 02:01:00,
2013-06-20 20:06:00,56.0,44.4,30.80,NNW,347,4.0,10.0,65,0.00,,,0.00,42.00,VWS V14.00,2013-06-21 02:06:00,
2013-06-20 20:11:00,55.5,44.3,30.78,North,355,3.0,9.0,66,0.00,,,0.00,26.00,VWS V14.00,2013-06-21 02:11:00,
2013-06-20 20:16:00,54.8,44.1,30.79,North,355,7.0,10.0,67,0.00,,,0.00,72.00,VWS V14.00,2013-06-21 02:16:00,
2013-06-20 20:21:00,54.4,42.9,30.79,North,360,6.0,12.0,65,0.00,,,0.00,46.00,VWS V14.00,2013-06-21 02:21:00,
2013-06-20 20:26:00,54.0,42.5,30.80,North,355,5.0,12.0,65,0.00,,,0.00,23.00,VWS V14.00,2013-06-21 02:26:00,
2013-06-20 20:31:00,53.7,43.8,30.80,NNW,332,6.0,12.0,69,0.00,,,0.00,21.00,VWS V14.00,2013-06-21 02:31:00,
2013-06-20 20:36:00,53.3,44.2,30.81,NNW,338,9.0,12.0,71,0.00,,,0.00,21.00,VWS V14.00,2013-06-21 02:36:00,
2013-06-20 20:41:00,52.7,43.9,30.81,NNW,347,7.0,11.0,72,0.00,,,0.00,16.00,VWS V14.00,2013-06-21 02:41:00,
2013-06-20 20:46:00,52.1,43.4,30.82,North,360,7.0,11.0,72,0.00,,,0.00,14.00,VWS V14.00,2013-06-21 02:46:00,
2013-06-20 20:51:00,51.6,42.5,30.82,North,350,7.0,11.0,71,0.00,,,0.00,12.00,VWS V14.00,2013-06-21 02:51:00,
2013-06-20 20:56:00,51.2,43.2,30.83,North,349,6.0,8.0,74,0.00,,,0.00,11.00,VWS V14.00,2013-06-21 02:56:00,
2013-06-20 21:01:00,50.7,43.4,30.83,NNW,346,4.0,8.0,76,0.00,,,0.00,9.00,VWS V14.00,2013-06-21 03:01:00,
2013-06-20 21:06:00,50.2,43.3,30.83,NNW,346,7.0,8.0,77,0.00,,,0.00,7.00,VWS V14.00,2013-06-21 03:06:00,
2013-06-20 21:11:00,49.7,43.5,30.83,NNW,348,4.0,6.0,79,0.00,,,0.00,7.00,VWS V14.00,2013-06-21 03:11:00,
2013-06-20 21:16:00,49.5,42.9,30.84,NNW,348,4.0,6.0,78,0.00,,,0.00,5.00,VWS V14.00,2013-06-21 03:16:00,
2013-06-20 21:22:00,49.2,42.6,30.84,North,355,1.0,6.0,78,0.00,,,0.00,0.00,VWS V14.00,2013-06-21 03:22:00,
2013-06-20 21:27:00,49.2,42.3,30.84,North,355,0.0,5.0,77,0.00,,,0.00,0.00,VWS V14.00,2013-06-21 03:27:00,
2013-06-20 21:32:00,49.1,41.5,30.84,North,355,0.0,5.0,75,0.00,,,0.00,0.00,VWS V14.00,2013-06-21 03:32:00,
2013-06-20 21:37:00,49.2,41.3,30.84,North,355,0.0,5.0,74,0.00,,,0.00,0.00,VWS V14.00,2013-06-21 03:37:00,
2013-06-20 21:42:00,49.3,41.4,30.85,North,355,0.0,4.0,74,0.00,,,0.00,0.00,VWS V14.00,2013-06-21 03:42:00,
2013-06-20 21:47:00,49.5,41.6,30.85,North,355,2.0,4.0,74,0.00,,,0.00,0.00,VWS V14.00,2013-06-21 03:47:00,
2013-06-20 21:52:00,49.6,41.7,30.85,North,355,3.0,5.0,74,0.00,,,0.00,0.00,VWS V14.00,2013-06-21 03:52:00,
2013-06-20 21:56:00,49.7,41.4,30.85,North,355,0.0,4.0,73,0.00,,,0.00,0.00,VWS V14.00,2013-06-21 03:56:00,
2013-06-20 22:01:00,49.7,41.4,30.85,North,355,0.0,4.0,73,0.00,,,0.00,0.00,VWS V14.00,2013-06-21 04:01:00,
2013-06-20 22:06:00,49.7,41.8,30.85,North,355,0.0,4.0,74,0.00,,,0.00,0.00,VWS V14.00,2013-06-21 04:06:00,
2013-06-20 22:11:00,49.6,42.4,30.85,North,355,0.0,1.0,76,0.00,,,0.00,0.00,VWS V14.00,2013-06-21 04:11:00,
2013-06-20 22:16:00,49.2,42.6,30.86,NNW,346,2.0,6.0,78,0.00,,,0.00,0.00,VWS V14.00,2013-06-21 04:16:00,
2013-06-20 22:21:00,48.7,42.8,30.87,NNW,347,0.0,6.0,80,0.00,,,0.00,0.00,VWS V14.00,2013-06-21 04:21:00,
2013-06-20 22:26:00,48.3,42.8,30.87,NNW,346,0.0,4.0,81,0.00,,,0.00,0.00,VWS V14.00,2013-06-21 04:26:00,
2013-06-20 22:31:00,48.1,42.9,30.87,NNW,346,0.0,4.0,82,0.00,,,0.00,0.00,VWS V14.00,2013-06-21 04:31:00,
2013-06-20 22:36:00,47.8,42.9,30.87,NNW,346,2.0,4.0,83,0.00,,,0.00,0.00,VWS V14.00,2013-06-21 04:36:00,
2013-06-20 22:41:00,47.7,42.8,30.88,NNW,346,0.0,4.0,83,0.00,,,0.00,0.00,VWS V14.00,2013-06-21 04:41:00,
2013-06-20 22:46:00,47.7,42.8,30.88,NNW,347,0.0,4.0,83,0.00,,,0.00,0.00,VWS V14.00,2013-06-21 04:46:00,
2013-06-20 22:51:00,47.6,42.7,30.88,NNW,347,0.0,4.0,83,0.00,,,0.00,0.00,VWS V14.00,2013-06-21 04:51:00,
2013-06-20 22:56:00,47.6,42.7,30.88,NNW,346,0.0,0.0,83,0.00,,,0.00,0.00,VWS V14.00,2013-06-21 04:56:00,
2013-06-20 23:01:00,47.5,42.6,30.89,NNW,346,0.0,1.0,83,0.00,,,0.00,0.00,VWS V14.00,2013-06-21 05:01:00,
2013-06-20 23:06:00,47.3,42.4,30.89,NNW,347,0.0,1.0,83,0.00,,,0.00,0.00,VWS V14.00,2013-06-21 05:06:00,
2013-06-20 23:11:00,47.1,42.2,30.87,NNW,347,0.0,0.0,83,0.00,,,0.00,0.00,VWS V14.00,2013-06-21 05:11:00,
2013-06-20 23:16:00,47.0,42.1,30.87,NNW,347,0.0,0.0,83,0.00,,,0.00,0.00,VWS V14.00,2013-06-21 05:16:00,
2013-06-20 23:21:00,46.8,41.9,30.87,NNW,347,0.0,0.0,83,0.00,,,0.00,0.00,VWS V14.00,2013-06-21 05:21:00,
2013-06-20 23:26:00,46.7,41.8,30.87,NNW,347,0.0,0.0,83,0.00,,,0.00,0.00,VWS V14.00,2013-06-21 05:26:00,
2013-06-20 23:31:00,46.6,41.7,30.87,NNW,346,0.0,0.0,83,0.00,,,0.00,0.00,VWS V14.00,2013-06-21 05:31:00,
2013-06-20 23:36:00,46.3,41.7,30.88,NNW,346,0.0,0.0,84,0.00,,,0.00,0.00,VWS V14.00,2013-06-21 05:36:00,
2013-06-20 23:41:00,46.1,41.5,30.89,NNW,346,0.0,0.0,84,0.00,,,0.00,0.00,VWS V14.00,2013-06-21 05:41:00,
2013-06-20 23:46:00,45.8,41.2,30.88,NNW,347,0.0,0.0,84,0.00,,,0.00,0.00,VWS V14.00,2013-06-21 05:46:00,
2013-06-20 23:51:00,45.6,41.4,30.88,NNW,347,0.0,0.0,85,0.00,,,0.00,0.00,VWS V14.00,2013-06-21 05:51:00,
2013-06-20 23:56:00,45.4,41.2,30.88,NNW,346,0.0,0.0,85,0.00,,,0.00,0.00,VWS V14.00,2013-06-21 05:56:00,